Total_Precipitation_Accumulation
1.48 1.54 1.47 1.61 1.68 1.83 2.02 2.31 2.37 2.50 2.51 2.42 2.05 1.75 1.65 1.52 1.37 1.55 1.76 1.64 1.44 1.52 1.84 2.10 1.94 1.71 1.56 1.49 1.35 1.23 1.11 1.09 0.99 0.75 0.64 0.65 0.66 0.66 0.62 0.58 0.54 0.48 0.41
2.02 2.16 2.13 2.12 1.96 1.99 2.17 2.47 2.63 3.02 2.89 2.72 2.21 1.98 1.80 1.73 1.47 1.48 1.70 1.86 1.54 1.42 1.58 1.97 2.17 2.05 1.84 1.72 1.58 1.41 1.25 1.15 1.11 0.83 0.63 0.61 0.67 0.68 0.66 0.62 0.54 0.45 0.37
2.32 2.47 2.41 2.30 2.27 2.31 2.44 2.60 2.74 2.85 2.61 2.50 2.32 2.16 1.91 1.70 1.44 1.42 1.54 1.70 1.61 1.45 1.48 1.67 1.97 2.10 2.02 1.93 1.87 1.69 1.41 1.22 1.06 0.87 0.64 0.56 0.59 0.62 0.62 0.62 0.56 0.44 0.31
2.51 2.75 2.55 2.40 2.67 2.58 2.66 2.94 2.95 2.91 2.70 2.59 2.40 2.17 1.99 1.73 1.36 1.34 1.35 1.48 1.68 1.47 1.47 1.64 1.75 1.79 1.97 2.12 2.11 2.00 1.82 1.50 1.14 0.93 0.76 0.71 0.71 0.71 0.67 0.60 0.55 0.43 0.30
2.41 2.64 2.45 2.45 2.61 2.85 2.87 2.69 3.07 3.02 2.82 2.68 2.29 2.00 1.75 1.50 1.28 1.18 1.17 1.22 1.39 1.28 1.27 1.43 1.56 1.63 1.95 2.41 2.55 2.48 2.36 2.09 1.65 1.38 1.32 1.26 1.23 1.08 0.90 0.71 0.56 0.43 0.30
2.30 2.60 2.42 2.37 2.53 2.75 2.69 2.69 2.91 2.93 2.68 2.66 2.21 1.76 1.53 1.23 1.15 1.12 1.03 1.05 1.07 0.96 1.01 1.24 1.62 1.41 1.55 1.88 2.26 2.54 2.68 2.67 2.40 2.38 2.46 2.24 2.04 1.67 1.22 0.92 0.69 0.55 0.41
2.12 2.44 2.24 2.43 2.43 2.44 2.44 2.51 2.75 2.76 2.52 2.64 2.40 1.86 1.37 1.05 0.95 0.95 0.99 0.99 0.91 1.00 1.22 1.46 1.63 1.62 1.54 1.46 1.58 1.96 2.52 2.86 2.72 2.60 2.77 2.86 2.78 2.24 1.56 1.16 0.86 0.67 0.54
1.96 2.12 2.19 2.11 2.16 2.22 2.26 2.32 2.51 2.35 2.13 2.37 2.40 2.23 1.57 1.18 0.90 0.77 1.02 1.03 1.00 1.14 1.23 1.32 1.52 1.75 1.77 1.87 1.54 1.44 1.93 2.53 2.75 2.60 2.53 2.81 2.91 2.37 1.75 1.48 1.16 0.89 0.74
1.80 1.86 1.92 1.94 1.96 1.94 1.99 2.14 2.15 2.09 1.95 2.00 2.21 2.35 1.90 1.42 1.12 0.80 0.75 0.86 1.04 1.12 1.14 1.28 1.32 1.45 1.55 1.85 1.87 1.64 1.56 1.79 2.35 2.80 2.78 2.73 2.70 2.32 1.93 1.73 1.52 1.18 0.98
1.53 1.54 1.55 1.60 1.67 1.71 1.82 1.73 1.78 1.95 1.97 1.84 1.96 2.02 1.93 1.84 1.64 1.09 0.80 0.81 1.04 1.09 1.08 1.09 1.18 1.35 1.44 1.59 1.73 1.73 1.57 1.49 1.78 2.36 2.77 2.82 2.62 2.19 1.94 1.92 2.03 1.76 1.29
1.42 1.36 1.39 1.40 1.39 1.43 1.53 1.57 1.76 1.81 1.86 1.82 1.79 1.80 1.89 1.88 1.73 1.45 1.05 0.97 0.98 0.91 0.98 1.04 1.14 1.34 1.51 1.62 1.77 1.63 1.66 1.50 1.56 1.73 2.10 2.42 2.49 2.35 2.05 2.04 2.38 2.43 2.04
1.21 1.23 1.23 1.23 1.25 1.30 1.41 1.46 1.50 1.53 1.58 1.62 1.60 1.61 1.71 1.66 1.58 1.62 1.32 1.20 1.17 1.00 1.04 1.08 1.12 1.25 1.33 1.44 1.37 1.46 1.44 1.30 1.29 1.30 1.33 1.61 1.90 2.05 2.08 2.17 2.46 2.65 2.58
0.94 0.95 1.01 1.04 1.08 1.17 1.30 1.34 1.31 1.33 1.40 1.45 1.43 1.50 1.58 1.55 1.54 1.67 1.70 1.52 1.40 1.17 1.19 1.19 1.12 1.20 1.18 1.38 1.34 1.21 1.04 0.96 0.89 0.88 0.92 1.06 1.24 1.43 1.61 1.85 2.19 2.48 2.60
0.77 0.78 0.83 0.90 0.98 1.04 1.09 1.26 1.30 1.31 1.35 1.40 1.39 1.57 1.56 1.45 1.48 1.60 1.76 1.89 1.77 1.48 1.44 1.33 1.16 1.08 1.15 1.23 1.15 0.97 0.78 0.72 0.68 0.66 0.64 0.72 0.86 0.98 1.11 1.30 1.57 1.79 1.97
0.91 0.87 0.89 0.94 1.01 1.09 1.16 1.25 1.33 1.36 1.43 1.47 1.55 1.66 1.59 1.45 1.43 1.51 1.77 1.96 2.06 1.83 1.60 1.43 1.31 1.06 1.07 1.02 0.98 0.90 0.89 0.71 0.55 0.53 0.52 0.50 0.54 0.64 0.73 0.83 0.96 1.12 1.24
0.96 0.95 0.96 0.96 0.98 1.03 1.14 1.24 1.35 1.40 1.47 1.57 1.60 1.69 1.73 1.64 1.64 1.67 1.80 1.96 2.09 2.12 1.79 1.51 1.49 1.23 1.11 0.92 0.89 0.85 0.78 0.72 0.56 0.46 0.46 0.44 0.43 0.47 0.51 0.58 0.66 0.74 0.84
0.86 0.83 0.81 0.79 0.81 0.84 0.88 0.97 1.04 1.11 1.20 1.29 1.33 1.44 1.59 1.73 1.74 1.75 1.81 1.86 1.98 2.14 1.89 1.80 1.89 1.74 1.50 1.25 1.06 0.92 0.77 0.75 0.65 0.52 0.43 0.43 0.43 0.44 0.46 0.51 0.53 0.59 0.66
0.64 0.61 0.59 0.58 0.59 0.59 0.62 0.67 0.74 0.87 0.99 1.10 1.18 1.23 1.23 1.31 1.42 1.50 1.60 1.74 1.86 2.07 2.00 2.02 2.19 2.16 1.89 1.54 1.36 1.19 0.91 0.78 0.71 0.63 0.48 0.39 0.41 0.44 0.45 0.48 0.51 0.54 0.57
0.39 0.41 0.47 0.49 0.48 0.50 0.55 0.60 0.68 0.78 0.86 0.92 0.97 0.98 0.93 0.97 1.05 1.17 1.26 1.42 1.61 1.88 2.01 2.13 2.33 2.27 2.04 1.78 1.62 1.35 1.15 1.06 0.84 0.75 0.62 0.46 0.39 0.41 0.45 0.47 0.52 0.58 0.59
0.30 0.32 0.38 0.43 0.44 0.48 0.58 0.70 0.81 0.81 0.82 0.79 0.74 0.70 0.71 0.81 0.89 0.99 1.12 1.19 1.32 1.54 1.72 1.93 2.20 2.24 2.10 1.99 1.88 1.57 1.37 1.28 1.10 0.89 0.81 0.60 0.49 0.44 0.44 0.47 0.51 0.58 0.67
0.25 0.29 0.37 0.44 0.49 0.53 0.53 0.59 0.68 0.70 0.73 0.71 0.65 0.56 0.53 0.60 0.67 0.76 0.82 0.99 1.14 1.33 1.46 1.66 1.95 2.19 2.05 1.94 1.84 1.73 1.57 1.51 1.41 1.21 1.15 0.89 0.71 0.58 0.46 0.45 0.49 0.58 0.74
0.26 0.30 0.36 0.41 0.41 0.36 0.37 0.40 0.48 0.52 0.54 0.57 0.57 0.49 0.43 0.43 0.49 0.56 0.66 0.75 0.87 1.03 1.21 1.48 1.72 1.91 1.83 1.77 1.86 1.90 1.85 1.66 1.60 1.49 1.54 1.45 1.22 1.05 0.79 0.55 0.46 0.50 0.64
0.32 0.39 0.38 0.37 0.37 0.39 0.32 0.29 0.30 0.37 0.41 0.41 0.45 0.49 0.41 0.36 0.43 0.49 0.54 0.53 0.63 0.75 0.89 1.15 1.38 1.56 1.72 1.71 1.89 2.03 2.11 2.01 1.89 1.79 1.89 1.98 1.86 1.69 1.12 0.87 0.77 0.62 0.59
0.45 0.48 0.46 0.41 0.44 0.42 0.30 0.27 0.27 0.28 0.34 0.37 0.39 0.41 0.45 0.48 0.46 0.45 0.53 0.56 0.52 0.55 0.62 0.69 0.91 1.22 1.72 1.96 1.92 2.01 2.21 2.25 2.14 2.08 2.11 2.28 2.14 2.05 1.63 1.17 0.90 0.65 0.57
0.51 0.52 0.51 0.48 0.48 0.47 0.33 0.25 0.25 0.30 0.35 0.38 0.39 0.37 0.37 0.45 0.45 0.36 0.43 0.50 0.51 0.52 0.53 0.61 0.75 1.01 1.28 1.61 1.79 1.86 1.97 2.12 2.28 2.27 2.20 2.30 2.27 2.16 2.16 1.85 1.27 0.87 0.60
0.56 0.52 0.49 0.51 0.51 0.52 0.39 0.24 0.23 0.31 0.37 0.40 0.46 0.43 0.33 0.30 0.31 0.29 0.40 0.48 0.49 0.49 0.52 0.58 0.63 0.76 0.96 1.15 1.21 1.23 1.34 1.45 1.67 1.86 1.82 1.96 2.22 2.26 2.46 2.47 1.98 1.38 0.98